Flag for Germany Weather past 2 weeks in Sonneberg, Thuringia, Germany

Now
69 °F

Clear.


Feels Like: 69 °F
Forecast: 65 / 87 °F
Wind: 2 mph from Southeast

Location: Hof

Current Time: Jul 3, 2015 at 1:45:27 AM

Latest Report: Jul 3, 2015 at 1:00 AM


Visibility: 16 mi

Pressure: 30.22 "Hg

Humidity: 64%

Dew point: 56 °F

Location of SonnebergLocation

Historic Weather in Sonneberg — Graph

°F

Sonneberg temperature yesterday

Maximum temperature yesterday: 86 °F (at 6:00 PM)
Minimum temperature yesterday: 62 °F (at 6:00 AM)
Average temperature yesterday: 75 °F

Past Weeks' High & Low Weather Summary

 TemperatureHumidityPressure
High86 °F (Jul 2, 6:00 PM)100% (Jun 25, 6:00 AM)30.27 "Hg (Jun 25, 6:00 AM)
Low43 °F (Jun 25, 5:00 AM)33% (Jul 1, 3:00 PM)29.67 "Hg (Jun 23, 3:00 AM)
Average59 °F74%30.07 "Hg
* Reported Midnight between Jun 17 and Jun 18 — Midnight between Jul 2 and Jul 3, Sonneberg, Weather by CustomWeather, © 2015

Note: Actual official high and low records may vary slightly from our data, if they occured in-between our weather recording intervals... More about our weather records

Advertising

Sonneberg weather history for previous 24 hours

 ConditionsComfort  
Time TempWeatherWind HumidityBarometerVisibility
12:00 AM
Fri, Jul 3
71 °FClear.2 mph60%30.21 "Hg13 mi
10:00 PM
Thu, Jul 2
76 °FClear.2 mph55%30.17 "Hg19 mi
9:00 PM81 °FSunny.1 mph46%30.13 "Hg19 mi
8:00 PM84 °FSunny.2 mph39%30.11 "Hg22 mi
7:00 PM85 °FSunny.2 mph35%30.11 "Hg19 mi
6:00 PM86 °FSunny.2 mph34%30.11 "Hg16 mi
5:00 PM85 °FSunny.3 mph34%30.11 "Hg19 mi
4:00 PM85 °FSunny.2 mph35%30.12 "Hg19 mi
3:00 PM84 °FSunny.3 mph35%30.12 "Hg19 mi
2:00 PM83 °FSunny.3 mph40%30.13 "Hg19 mi
1:00 PM82 °FSunny.3 mph40%30.15 "Hg19 mi
12:00 PM80 °FSunny.2 mph48%30.15 "Hg19 mi
11:00 AM78 °FSunny.2 mph50%30.16 "Hg16 mi
10:00 AM74 °FSunny.2 mph58%30.18 "Hg16 mi
9:00 AM70 °FSunny.3 mph61%30.19 "Hg16 mi
8:00 AM67 °FSunny.2 mph66%30.20 "Hg16 mi
7:00 AM63 °FSunny.2 mph71%30.20 "Hg16 mi
6:00 AM62 °FSunny.1 mph75%30.20 "Hg16 mi
4:00 AM63 °FClear.2 mph71%30.19 "Hg17 mi
3:00 AM64 °FClear.2 mph70%30.19 "Hg16 mi
2:00 AM65 °FClear.2 mph71%30.19 "Hg16 mi
1:00 AM66 °FClear.1 mph70%30.18 "Hg16 mi
Weather by CustomWeather, © 2015

See weather overviewHow to use our weather pages